Regional Weather Roundup
Issued by NWS

Home | Current Version | Previous Version | Text Only | Print | Product List | Glossary On
Versions: 1 2 3 4 5 6 7 8 9 10 11 12 13 14 15 16 17 18 19 20 21 22 23 24 25 26 27
000
ASUS45 KTFX 302210
RWRMT
MONTANA REGIONAL WEATHER ROUNDUP
NATIONAL WEATHER SERVICE GREAT FALLS MT
400 PM MDT FRI SEP 30 2016

NOTE: "FAIR" INDICATES FEW OR NO CLOUDS BELOW 12000 FEET WITH NO
SIGNIFICANT WEATHER AND/OR OBSTRUCTIONS TO VISIBILITY.

MTZ001>007-043-302300-
WEST OF THE DIVIDE

CITY           SKY/WX    TMP DP  RH WIND       PRES   REMARKS
KALISPELL      SUNNY     76  47  35 S7        29.93F
MISSOULA       MOSUNNY   82  37  20 SE7       29.92F
BUTTE          LGT RAIN  67  43  41 VRB7      30.11R
MULLAN PASS    SUNNY     65  35  33 VRB7G21   30.08S
ANACONDA         N/A     75  34  22 S10       30.04F
DEER LODGE       N/A     73  39  29 S3        30.04F
EUREKA           N/A     72  48  43 CALM      29.94F
HAMILTON         N/A     81  37  21 S7        29.95F
LIBBY            N/A     73  54  49 NW3       29.90F
RONAN            N/A     78  49  36 N2        29.99F
$$

MTZ008-052>055-302300-
SOUTHWEST MONTANA

CITY           SKY/WX    TMP DP  RH WIND       PRES   REMARKS
BOZEMAN        SUNNY     78  43  28 N5        30.05F
DILLON         LGT RAIN  69  34  27 S21G33    30.08F
W YELLOWSTONE  SUNNY     64  41  42 SW9       30.21F
ENNIS          PTSUNNY   73  41  31 S18G25    30.14F
THREE FORKS      N/A     78 -40   1 E5        30.02F
TWIN BRIDGES     N/A     77  38  24 SE3       30.05F
$$

MTZ009-010-012-014-046-048-049-054-302300-
EAST SLOPES AND CENTRAL MONTANA

CITY           SKY/WX    TMP DP  RH WIND       PRES   REMARKS
CUT BANK       SUNNY     74  44  34 SE10      29.98F
GREAT FALLS    SUNNY     79  44  28 VRB7      29.97F
MALMSTROM AFB  SUNNY     78  42  28 NW1       29.97F
HELENA         MOSUNNY   81  44  27 SE12      29.97F
AUGUSTA          N/A     76  41  29 SE15      29.99F
BOWMANS CRNR     N/A     75  41  29 S13       29.97F
CHOTEAU          N/A     77  45  31 E10       29.99F
FAIRFIELD        N/A     76  43  30 SE10G17   29.97F
POWER            N/A     76  42  30 SE7       29.97F
RAYNESFORD       N/A     76  45  32 NW6       30.00F
$$

MTZ011-013-016-021-045-047-050-051-302300-
NORTH CENTRAL MONTANA

CITY           SKY/WX    TMP DP  RH WIND       PRES   REMARKS
HAVRE          SUNNY     79  53  40 E8        29.93F
LEWISTOWN      SUNNY     77  45  32 N5        30.02F
N BAR RANCH      N/A     75  48  38 NE6       30.06S
CHINOOK          N/A     81  52  36 N3        29.93F
DENTON           N/A     75  48  38 N5        29.97F
GEYSER           N/A     76  41  29 SE15      29.99F
GRASS RANGE      N/A     76  49  38 E8        29.97F
JUDITH GAP     MOCLDY    70  47  43 NW7       30.04S
ROY              N/A     75  50  40 MISG      29.98F
STANFORD         N/A     71  47  41 E3        30.04S
WINIFRED         N/A    N/A N/A N/A MISG        N/A
$$

MTZ017>020-022>027-061-062-302300-
NORTHEAST MONTANA

CITY           SKY/WX    TMP DP  RH WIND       PRES   REMARKS
GLASGOW        SUNNY     79  51  37 NW7       29.92F
JORDAN           N/A     83  53  35 N10       29.93F
SIDNEY         CLOUDY    67  56  67 E5        29.97R
WOLF POINT     MOSUNNY   78  53  41 N3        29.92F
PLENTYWOOD       N/A     73  52  46 SE10      29.97R
POPLAR           N/A     75  54  46 SE8       29.93F
$$

MTZ028>42-056>058-302300-
SOUTHCENTRAL AND SOUTHEAST MONTANA

CITY           SKY/WX    TMP DP  RH WIND       PRES   REMARKS
BAKER          SUNNY     75  51  43 SE10      29.99F
BILLINGS       MOSUNNY   83  41  22 NW8       29.99F
LIVINGSTON     MOSUNNY   75  43  31 SW7       30.05S
MILES CITY     SUNNY     83  48  29 W8        29.93F
BIG TIMBER     SUNNY     79  37  22 VRB3      30.06S
FORSYTH          N/A     81  50  34 W7        29.94F
HARLOWTON        N/A     80  39  23 W14       30.01F
LAUREL           N/A     82  43  25 NW5       29.99F
ROUNDUP          N/A     81  46  29 NE8       29.91S
$$

REGIONAL REPORTS...DAKOTAS

CITY           SKY/WX    TMP DP  RH WIND       PRES   REMARKS
WILLISTON      PTSUNNY   62  51  67 VRB3      30.00R
MINOT          CLOUDY    62  54  74 E6        30.07S
DICKINSON      SUNNY     67  45  45 S22       30.01S
BEACH            N/A     73  50  43 SE14G20   30.01S
CROSBY           N/A     68  50  52 SE15      30.01S
WATFORD CITY     N/A     64  52  63 SE13      30.00F
BISMARCK       CLOUDY    68  48  48 SE15      30.08F
GRAND FORKS    MOSUNNY   71  49  45 SE15      30.19F
FARGO          CLOUDY    71  48  43 SE17G23   30.20F
BUFFALO SD       N/A     74  47  38 SE20      29.94S
RAPID CITY     CLOUDY    70  50  49 SE9       30.02F
$$

REGIONAL REPORTS...WYOMING/IDAHO/WASHINGTON

CITY           SKY/WX    TMP DP  RH WIND       PRES   REMARKS
GILLETTE       MOSUNNY   75  47  36 N6        30.05S
SHERIDAN       MOSUNNY   78  51  38 S8        30.04S
BUFFALO WY     CLOUDY    75  44  33 N8        30.11R
CODY           PTSUNNY   75  42  30 E7        30.09F
YELLOWSTONE LA   N/A     51  51 100 CALM      30.31F
IDAHO FALLS    MOSUNNY   74  44  34 SW7       30.11F
SALMON         MOSUNNY   75  37  25 S20G28    29.98F
BOISE          SUNNY     86  31  13 S10G26    29.92F
SPOKANE        PTSUNNY   73  44  35 S6        29.91F
$$

REGIONAL REPORTS...ALBERTA

CITY           SKY/WX    TMP DP  RH WIND       PRES   REMARKS
EDMONTON       CLOUDY    52  45  76 E14       30.04S
CALGARY        MOSUNNY   61  48  63 NE7       29.97S
LETHBRIDGE     MOSUNNY   73  45  35 SE8       29.92S
MEDICINE HAT   MOSUNNY   72  54  53 VRB2      29.92F
WATERTON GATE    N/A     73  41  31 S14G21      N/A
ONEFOUR          N/A     81  37  21 E8          N/A
$$

REGIONAL REPORTS...SASKATCHEWAN

CITY           SKY/WX    TMP DP  RH WIND       PRES   REMARKS
SWIFT CURRENT  SUNNY     68  50  52 NW9       29.97S
REGINA         MOSUNNY   72  50  46 SE16      29.97S
SASKATOON      MOSUNNY   68  50  52 CALM      29.96F
CYPRESS HILLS    N/A     72  41  33 NE5         N/A
VAL MARIE        N/A     81  48  32 N9          N/A
ROCKGLEN         N/A     72  50  46 S8          N/A
ASSINIBOIA       N/A     54  46  76 NE9         N/A
$$




USA.gov is the U.S. government's official web portal to all federal, state and local government web resources and services.